Weather History for KFXE - January, 2014

Change the Weather History Date:

Tuesday, January 21, 2014

  Actual Average Record
Temperature  
Mean Temperature 68 °F -  
Max Temperature 73 °F 77 °F 86 °F (1975)
Min Temperature 62 °F 57 °F 35 °F (1961)
Cooling Degree Days 2    
Growing Degree Days 18 (Base 50)    
Moisture  
Dew Point 57 °F    
Average Humidity 74    
Maximum Humidity 90    
Minimum Humidity 51    
Precipitation  
Precipitation 0.00 in - - ()
Sea Level Pressure  
Sea Level Pressure 29.98 in    
Wind  
Wind Speed 7 mph (SW)    
Max Wind Speed 15 mph    
Max Gust Speed 22 mph    
Visibility 10 miles    
Events      
Averages and records for this station are not official NWS values.
T = Trace of Precipitation, MM = Missing Value Source: NWS Daily Summary

Daily Weather History Graph

Daily Weather History Graph

Search for Another Location

Airport or City:

Trip Planner

Search our weather history database for the weather conditions in past years. The results will help you decide how hot, cold, wet, or windy it might be!

Date:

Astronomy

Jan. 21, 2014 Rise Set
Actual Time 7:08 AM EST 5:55 PM EST
Civil Twilight 6:44 AM EST 6:20 PM EST
Nautical Twilight 6:16 AM EST 6:48 PM EST
Astronomical Twilight 5:48 AM EST 7:15 PM EST
Moon 10:50 PM EST (1/21) 10:10 AM EST (1/21)
Length of Visible Light 11h 35m
Length of Day
10h 46m
Waning Gibbous, 75% of the Moon is Illuminated
Jan 21
Waning Gibbous
Jan 24
Last Quarter
Jan 30
New
Feb 6
First Quarter
Feb 14
Full

Hourly Weather History & Observations

Time (EST) Temp. Dew Point Humidity Pressure Visibility Wind Dir Wind Speed Gust Speed Precip Events Conditions
12:53 AM 63.0 °F 55.9 °F 78% 30.07 in 10.0 mi SW 4.6 mph - N/A   Clear
1:53 AM 62.1 °F 55.9 °F 80% 30.06 in 10.0 mi WSW 3.5 mph - N/A   Clear
2:53 AM 62.1 °F 55.9 °F 80% 30.04 in 10.0 mi SW 3.5 mph - N/A   Scattered Clouds
3:53 AM 62.1 °F 55.9 °F 80% 30.03 in 10.0 mi SSW 3.5 mph - N/A   Clear
4:53 AM 63.0 °F 55.9 °F 78% 30.02 in 10.0 mi SSW 4.6 mph - N/A   Overcast
5:53 AM 63.0 °F 55.9 °F 78% 30.03 in 10.0 mi SW 4.6 mph - N/A   Overcast
6:53 AM 64.0 °F 57.0 °F 78% 30.02 in 10.0 mi Calm Calm - N/A   Scattered Clouds
7:53 AM 64.9 °F 57.0 °F 75% 30.02 in 10.0 mi SW 5.8 mph - N/A   Scattered Clouds
8:53 AM 68.0 °F 57.9 °F 70% 30.03 in 10.0 mi WSW 9.2 mph - N/A   Scattered Clouds
9:53 AM 68.0 °F 59.0 °F 73% 30.05 in 10.0 mi West 13.8 mph - 0.00 in   Overcast
10:53 AM 69.1 °F 57.9 °F 68% 30.03 in 10.0 mi SW 9.2 mph - 0.00 in   Overcast
11:53 AM 71.1 °F 57.9 °F 63% 30.00 in 10.0 mi SW 12.7 mph - N/A   Overcast
12:53 PM 73.0 °F 59.0 °F 61% 29.96 in 10.0 mi SSW 15.0 mph 19.6 mph N/A   Mostly Cloudy
1:53 PM 73.9 °F 55.9 °F 53% 29.93 in 10.0 mi SW 11.5 mph - N/A   Mostly Cloudy
2:53 PM 73.0 °F 54.0 °F 51% 29.91 in 10.0 mi WSW 15.0 mph 21.9 mph N/A   Mostly Cloudy
3:53 PM 69.1 °F 57.9 °F 68% 29.91 in 10.0 mi WSW 11.5 mph - N/A   Overcast
4:53 PM 68.0 °F 55.9 °F 65% 29.92 in 10.0 mi SSW 15.0 mph - N/A   Overcast
5:53 PM 66.9 °F 55.0 °F 66% 29.92 in 10.0 mi SW 9.2 mph - N/A   Overcast
6:53 PM 64.9 °F 55.9 °F 73% 29.93 in 10.0 mi WSW 9.2 mph - N/A   Partly Cloudy
7:53 PM 63.0 °F 57.0 °F 81% 29.94 in 10.0 mi SW 6.9 mph - N/A   Clear
8:53 PM 62.1 °F 57.9 °F 86% 29.94 in 10.0 mi SW 10.4 mph - N/A   Clear
9:53 PM 62.1 °F 57.9 °F 86% 29.94 in 10.0 mi SW 8.1 mph - N/A   Clear
10:53 PM 62.1 °F 59.0 °F 90% 29.94 in 10.0 mi SW 8.1 mph - N/A   Clear
11:53 PM 63.0 °F 59.0 °F 87% 29.92 in 10.0 mi WSW 10.4 mph 18.4 mph N/A   Clear